OINR

Details ICAO OINR (RZR)
Name RAMSAR
Region Iran
Timezone Asia/Tehran (UTC+4.5)
Plans Departing 1
Arriving 1
Stats Elevation -70 ft / -21 m (AMSL)
Location 36.909907° 50.679592°
Runways 1
Magnetic Variation 5.136° E
Sunrise 2018-05-25 01:24:16 UTC / 2018-05-25 05:54:16 Local
Sunset 2018-05-25 15:47:01 UTC / 2018-05-25 20:17:01 Local
Advertisement - Login to hide

Runways

ID Width Length Bearing (true) Bearing (mag) Surface Threshold Offset Overrun Length
13 148 ft / 45 m 4,919 ft / 1,499 m 130.46° 125.32° Asphalt 0 ft / 0 m 259 ft / 79 m
31 148 ft / 45 m 4,919 ft / 1,499 m 310.46° 305.32° Asphalt 0 ft / 0 m 263 ft / 80 m

Map

Weather


0- 5 10 15 20 25 30 35+ Temperature / ° C

Clouds and Precipitation
Forecast for 2018-05-25 06:00 UTC. Updated an hour ago

Ground ~20,000 ft ~40,000 ft Winds

METAR

OINR 250600Z 03004KT 9999 FEW033 SCT100 26/19 Q1007

TAF

Not found

Frequencies

Tower 121.90 MHz TWR
Tower 122.90 MHz TWR
Warning: Do not use this data for real-world aviation or navigation. No guarantee of current accuracy is given.